Home   Weather   Columbus   Past weeks

Flag for USA Past Weather in Columbus, Georgia, USA — Yesterday and Last 2 Weeks

Now
78 °F

Clear.


Feels Like: 80 °F
Forecast: 73 / 93 °F
Wind: 5 mph from Southeast

Location: Columbus Metropolitan Airport

Current Time: Aug 21, 2017 at 4:33:13 am

Latest Report: Aug 21, 2017 at 2:51 am


Visibility: 10 mi

Pressure: 30.09 "Hg

Humidity: 79%

Dew Point: 71 °F

Location of ColumbusLocation

Past Weather in Columbus — Graph

°F

Columbus Temperature Yesterday

Maximum temperature yesterday: 97 °F (at 5:51 pm)
Minimum temperature yesterday: 73 °F (at 7:51 am)
Average temperature yesterday: 85 °F

High & Low Weather Summary for the Past Weeks

 TemperatureHumidityPressure
High97 °F (Aug 20, 5:51 pm)97% (Aug 10, 1:51 am)30.17 "Hg (Aug 10, 1:51 am)
Low72 °F (Aug 19, 5:51 am)30% (Aug 20, 5:51 pm)29.84 "Hg (Aug 14, 4:51 pm)
Average82 °F76%30.01 "Hg
* Reported Aug 6 2:51 am — Aug 21 2:51 am, Columbus. Weather by CustomWeather, © 2017

Note: Actual official high and low records may vary slightly from our data, if they occured in-between our weather recording intervals... More about our weather records

Advertising

Columbus Weather History for the Previous 24 Hours

Scroll right to see more
 ConditionsComfort  
Time TempWeatherWind HumidityBarometerVisibility
2:51 am
Mon, Aug 21
78 °FClear.5 mph79%30.09 "Hg10 mi
1:51 am79 °FClear.No wind77%30.09 "Hg10 mi
12:51 am81 °FClear.No wind69%30.08 "Hg10 mi
11:51 pm
Sun, Aug 20
84 °FClear.No wind61%30.07 "Hg10 mi
10:51 pm85 °FClear.3 mph59%30.08 "Hg10 mi
9:51 pm87 °FClear.5 mph53%30.06 "Hg10 mi
8:51 pm90 °FClear.3 mph47%30.05 "Hg10 mi
7:51 pm93 °FSunny.5 mph40%30.03 "Hg10 mi
6:51 pm93 °FSunny.5 mph41%30.01 "Hg10 mi
5:51 pm97 °FSunny.8 mph30%30.00 "Hg10 mi
4:51 pm95 °FSunny.8 mph37%30.00 "Hg10 mi
3:51 pm96 °FSunny.5 mph36%30.01 "Hg10 mi
2:51 pm94 °FSunny.7 mph40%30.04 "Hg10 mi
1:51 pm92 °FSunny.3 mph44%30.06 "Hg10 mi
12:51 pm93 °FPassing clouds.3 mph41%30.07 "Hg10 mi
11:51 am90 °FSunny.6 mph48%30.07 "Hg10 mi
10:51 am88 °FSunny.No wind55%30.07 "Hg10 mi
9:51 am84 °FSunny.No wind65%30.06 "Hg10 mi
8:51 am80 °FSunny.No wind69%30.06 "Hg10 mi
7:51 am73 °FSunny.No wind88%30.03 "Hg10 mi
6:51 am74 °FClear.No wind85%30.02 "Hg10 mi
5:51 am75 °FClear.No wind82%30.01 "Hg10 mi
4:51 am75 °FClear.No wind85%29.99 "Hg10 mi
Weather by CustomWeather, © 2017

See weather overviewHow to use our weather pages